Date String (YYYY-MM-DD hh:mm:ss) UTC,Instrument flags,Ambient pressure (hPa),Sample flow (lpm),Bypass flow (lpm),Sample temperature (°C),Ambient temperature (°C),ASC tube jacket temperature (°C),LED temperature (°C),Box temperature (°C),Sample RH (%),Span deviation,Mass concentration (μg/m³),Mass concentration (μg/m³),Mass concentration (μg/m³)
DateTimeUTC,F1_M11,P_M11,Q1_M11,Q2_M11,T1_M11,T2_M11,T3_M11,T4_M11,T5_M11,U1_M11,ZSPAN_M11,X0_M11,X2_M11,X1_M11
2022-03-14 01:00:00,,0817.5,4.98,0.00,28.3,27.4,00.0,37.4,30.0,08.1,0000.0,0001.82,0000.93,0000.71
2022-03-14 01:01:00,,0817.5,4.99,0.00,28.3,27.4,00.0,37.4,30.0,08.1,0000.0,0002.96,0000.94,0000.72
2022-03-14 01:02:00,,0817.5,5.01,0.00,28.3,27.4,00.0,37.4,30.0,08.1,0000.0,0002.79,0000.91,0000.72
2022-03-14 01:03:00,,0817.5,4.99,0.00,28.3,27.4,00.0,37.4,30.0,07.9,0000.0,0002.69,0000.92,0000.72
2022-03-14 01:04:00,,0817.5,5.02,0.00,28.3,27.4,00.0,37.3,30.0,07.7,0000.0,0002.69,0000.92,0000.72
2022-03-14 01:05:00,,0817.6,4.99,0.00,28.3,27.4,00.0,37.3,30.0,07.8,0000.0,0002.75,0000.94,0000.72
2022-03-14 01:06:00,,0817.5,4.99,0.00,28.3,27.4,00.0,37.3,30.0,07.8,0000.0,0002.71,0000.93,0000.72
2022-03-14 01:07:00,,0817.6,5.02,0.00,28.3,27.4,00.0,37.3,30.0,07.8,0000.0,0002.73,0000.93,0000.71
2022-03-14 01:08:00,,0817.6,4.99,0.00,28.3,27.5,00.0,37.3,30.1,07.8,0000.0,0002.80,0000.96,0000.72
2022-03-14 01:09:00,,0817.7,5.01,0.00,28.3,27.5,00.0,37.3,30.1,07.8,0000.0,0002.81,0000.97,0000.72
2022-03-14 01:10:00,,0817.7,5.00,0.00,28.3,27.5,00.0,37.3,30.1,07.8,0000.0,0002.81,0000.96,0000.72
2022-03-14 01:11:00,,0817.6,4.98,0.00,28.3,27.5,00.0,37.3,30.1,07.8,0000.0,0002.82,0000.95,0000.72
2022-03-14 01:12:00,,0817.6,5.01,0.00,28.3,27.5,00.0,37.3,30.1,07.8,0000.0,0002.38,0000.94,0000.72
2022-03-14 01:13:00,,0817.6,5.00,0.00,28.3,27.5,00.0,37.3,30.1,07.8,0000.0,0001.38,0000.95,0000.72
2022-03-14 01:14:00,,0817.6,5.00,0.00,28.3,27.5,00.0,37.3,30.1,07.8,0000.0,0001.42,0000.94,0000.72
2022-03-14 01:15:00,,0817.6,5.02,0.00,28.3,27.5,00.0,37.3,30.1,07.8,0000.0,0001.45,0000.95,0000.73
2022-03-14 01:16:00,,0817.6,4.99,0.00,28.3,27.5,00.0,37.3,30.1,07.8,0000.0,0001.53,0000.96,0000.74
2022-03-14 01:17:00,,0817.6,4.99,0.00,28.3,27.5,00.0,37.3,30.1,07.8,0000.0,0001.50,0000.94,0000.74
2022-03-14 01:18:00,,0817.6,5.01,0.00,28.3,27.5,00.0,37.3,30.1,07.9,0000.0,0001.53,0000.96,0000.74
2022-03-14 01:19:00,,0817.6,4.98,0.00,28.3,27.5,00.0,37.3,30.0,07.9,0000.0,0001.86,0000.98,0000.76
2022-03-14 01:20:00,,0817.6,5.00,0.00,28.3,27.5,00.0,37.3,30.0,07.8,0000.0,0002.94,0000.98,0000.76
2022-03-14 01:21:00,,0817.6,5.00,0.00,28.3,27.5,00.0,37.3,30.1,07.8,0000.0,0002.97,0000.99,0000.77
2022-03-14 01:22:00,,0817.7,5.00,0.00,28.3,27.5,00.0,37.3,30.1,07.8,0000.0,0003.06,0001.03,0000.78
2022-03-14 01:23:00,,0817.7,5.00,0.00,28.3,27.5,00.0,37.3,30.1,07.8,0000.0,0003.21,0001.08,0000.79
2022-03-14 01:24:00,,0817.7,5.01,0.00,28.3,27.5,00.0,37.3,30.1,08.0,0000.0,0003.95,0001.08,0000.78
2022-03-14 01:25:00,,0817.6,5.00,0.00,28.3,27.5,00.0,37.3,30.0,07.9,0000.0,0003.90,0001.05,0000.78
2022-03-14 01:26:00,,0817.6,5.00,0.00,28.3,27.5,00.0,37.3,30.0,07.9,0000.0,0003.87,0001.04,0000.78
2022-03-14 01:27:00,,0817.7,4.99,0.00,28.2,27.4,00.0,37.3,30.0,07.9,0000.0,0003.77,0001.02,0000.77
2022-03-14 01:28:00,,0817.7,5.00,0.00,28.2,27.4,00.0,37.3,30.0,07.9,0000.0,0003.71,0001.01,0000.78
2022-03-14 01:29:00,,0817.8,5.02,0.00,28.2,27.4,00.0,37.2,29.9,07.9,0000.0,0003.71,0001.02,0000.78
2022-03-14 01:30:00,,0817.9,4.99,0.00,28.2,27.4,00.0,37.2,29.9,07.8,0000.0,0003.57,0000.99,0000.78
2022-03-14 01:31:00,,0817.9,4.99,0.00,28.2,27.4,00.0,37.2,30.0,07.8,0000.0,0002.52,0001.00,0000.78
2022-03-14 01:32:00,,0817.9,5.02,0.00,28.2,27.4,00.0,37.2,29.9,08.0,0000.0,0002.20,0000.98,0000.78
2022-03-14 01:33:00,,0817.9,4.99,0.00,28.2,27.4,00.0,37.2,29.9,08.0,0000.0,0002.21,0000.97,0000.77
2022-03-14 01:34:00,,0817.8,4.99,0.00,28.2,27.4,00.0,37.2,29.9,08.1,0000.0,0002.14,0000.96,0000.77
2022-03-14 01:35:00,,0818.0,5.01,0.00,28.2,27.4,00.0,37.2,30.0,08.0,0000.0,0001.64,0000.95,0000.78
2022-03-14 01:36:00,,0818.0,5.00,0.00,28.2,27.4,00.0,37.2,30.0,08.0,0000.0,0001.43,0000.98,0000.78
2022-03-14 01:37:00,,0818.0,4.99,0.00,28.2,27.4,00.0,37.2,30.0,08.0,0000.0,0002.20,0001.01,0000.79
2022-03-14 01:38:00,,0818.0,5.00,0.00,28.2,27.4,00.0,37.2,30.0,08.0,0000.0,0002.38,0001.02,0000.80
2022-03-14 01:39:00,,0818.0,5.00,0.00,28.2,27.5,00.0,37.2,30.0,08.1,0000.0,0002.42,0001.04,0000.80
2022-03-14 01:40:00,,0817.9,5.01,0.00,28.2,27.4,00.0,37.2,30.0,08.2,0000.0,0002.97,0001.05,0000.81
2022-03-14 01:41:00,,0818.0,4.99,0.00,28.2,27.4,00.0,37.2,30.0,08.2,0000.0,0003.21,0001.07,0000.82
2022-03-14 01:42:00,,0818.0,5.00,0.00,28.2,27.4,00.0,37.2,29.9,08.3,0000.0,0003.35,0001.10,0000.83
2022-03-14 01:43:00,,0817.9,5.02,0.00,28.2,27.4,00.0,37.2,29.9,08.4,0000.0,0003.50,0001.15,0000.84
2022-03-14 01:44:00,,0818.0,4.99,0.00,28.2,27.3,00.0,37.2,29.9,08.5,0000.0,0003.55,0001.18,0000.85
2022-03-14 01:45:00,,0817.8,4.99,0.00,28.1,27.3,00.0,37.2,29.8,08.7,0000.0,0003.50,0001.17,0000.87
2022-03-14 01:46:00,,0817.8,5.02,0.00,28.1,27.3,00.0,37.2,29.8,08.5,0000.0,0003.55,0001.20,0000.88
2022-03-14 01:47:00,,0817.9,5.00,0.00,28.1,27.2,00.0,37.2,29.7,08.6,0000.0,0003.92,0001.20,0000.89
2022-03-14 01:48:00,,0817.8,4.99,0.00,28.1,27.2,00.0,37.1,29.7,08.6,0000.0,0003.22,0001.20,0000.91
2022-03-14 01:49:00,,0817.8,5.01,0.00,28.0,27.1,00.0,37.1,29.6,08.7,0000.0,0003.03,0001.20,0000.91
2022-03-14 01:50:00,,0817.7,4.99,0.00,28.0,27.1,00.0,37.1,29.6,08.7,0000.0,0003.13,0001.24,0000.92
2022-03-14 01:51:00,,0817.5,5.00,0.00,28.0,27.0,00.0,37.1,29.7,08.8,0000.0,0002.73,0001.25,0000.92
2022-03-14 01:52:00,,0817.6,4.98,0.00,28.0,27.0,00.0,37.1,29.7,08.7,0000.0,0003.96,0001.28,0000.93
2022-03-14 01:53:00,,0817.6,5.02,0.00,28.0,26.9,00.0,37.0,29.7,08.7,0000.0,0003.97,0001.29,0000.93
2022-03-14 01:54:00,,0817.7,4.99,0.00,27.9,26.9,00.0,37.0,29.6,08.7,0000.0,0003.90,0001.28,0000.94
2022-03-14 01:55:00,,0817.6,4.99,0.00,27.9,26.9,00.0,37.0,29.5,08.9,0000.0,0003.78,0001.24,0000.94
2022-03-14 01:56:00,,0817.5,5.02,0.00,27.9,26.8,00.0,37.0,29.5,08.9,0000.0,0003.84,0001.25,0000.93
2022-03-14 01:57:00,,0817.5,4.99,0.00,27.8,26.8,00.0,37.0,29.5,08.9,0000.0,0003.82,0001.25,0000.92
2022-03-14 01:58:00,,0817.5,5.00,0.00,27.8,26.7,00.0,37.0,29.5,09.0,0000.0,0003.42,0001.22,0000.91
2022-03-14 01:59:00,,0817.5,5.01,0.00,27.8,26.7,00.0,36.9,29.5,09.0,0000.0,0003.37,0001.21,0000.90
